TimeCST,TemperatureF,Dew PointF,Humidity,Sea Level PressureIn,VisibilityMPH,Wind Direction,Wind SpeedMPH,Gust SpeedMPH,PrecipitationIn,Events,Conditions,WindDirDegrees,DateUTC
12:53 AM,37.9,21.0,51,30.18,10.0,West,5.8,-,N/A,,Clear,280,2012-11-15 06:53:00
1:53 AM,37.9,19.9,48,30.17,10.0,SW,6.9,-,N/A,,Clear,220,2012-11-15 07:53:00
2:53 AM,35.1,21.0,57,30.17,10.0,West,5.8,-,N/A,,Clear,260,2012-11-15 08:53:00
3:53 AM,34.0,19.9,56,30.19,10.0,SW,4.6,-,N/A,,Clear,230,2012-11-15 09:53:00
4:53 AM,36.0,21.0,55,30.20,10.0,West,9.2,-,N/A,,Clear,270,2012-11-15 10:53:00
5:53 AM,33.1,21.9,64,30.24,10.0,Calm,Calm,-,N/A,,Partly Cloudy,0,2012-11-15 11:53:00
6:53 AM,33.1,21.9,64,30.26,10.0,West,4.6,-,N/A,,Clear,270,2012-11-15 12:53:00
7:53 AM,35.1,25.0,67,30.31,10.0,West,3.5,-,N/A,,Clear,270,2012-11-15 13:53:00
8:53 AM,42.1,28.0,58,30.34,10.0,NNE,4.6,-,N/A,,Clear,30,2012-11-15 14:53:00
9:53 AM,48.0,28.9,48,30.35,10.0,NNE,10.4,-,N/A,,Clear,20,2012-11-15 15:53:00
10:53 AM,54.0,25.0,33,30.36,10.0,NNE,16.1,-,N/A,,Clear,30,2012-11-15 16:53:00
11:53 AM,57.9,21.9,25,30.36,10.0,NE,17.3,-,N/A,,Clear,40,2012-11-15 17:53:00
12:53 PM,57.9,23.0,26,30.35,10.0,NNE,16.1,21.9,N/A,,Clear,30,2012-11-15 18:53:00
1:53 PM,59.0,23.0,25,30.34,10.0,NNE,15.0,19.6,N/A,,Clear,20,2012-11-15 19:53:00
2:53 PM,59.0,23.0,25,30.34,10.0,ENE,11.5,-,N/A,,Clear,60,2012-11-15 20:53:00
3:53 PM,57.9,23.0,26,30.35,10.0,NE,10.4,-,N/A,,Clear,40,2012-11-15 21:53:00
4:53 PM,54.0,24.1,31,30.37,10.0,NE,6.9,-,N/A,,Clear,40,2012-11-15 22:53:00
5:53 PM,46.0,21.9,39,30.40,10.0,NNE,5.8,-,N/A,,Clear,30,2012-11-15 23:53:00
6:53 PM,43.0,23.0,45,30.44,10.0,NE,4.6,-,N/A,,Clear,50,2012-11-16 00:53:00
7:53 PM,39.0,21.9,50,30.45,10.0,Calm,Calm,-,N/A,,Clear,0,2012-11-16 01:53:00
8:53 PM,36.0,21.0,55,30.45,10.0,Calm,Calm,-,N/A,,Clear,0,2012-11-16 02:53:00
9:53 PM,33.1,21.0,61,30.45,10.0,Calm,Calm,-,N/A,,Clear,0,2012-11-16 03:53:00
10:53 PM,35.1,21.9,59,30.45,10.0,Calm,Calm,-,N/A,,Clear,0,2012-11-16 04:53:00
11:53 PM,32.0,21.0,64,30.45,10.0,Calm,Calm,-,N/A,,Clear,0,2012-11-16 05:53:00